This demonstration page uses our WeatherBlox Daily Observations layout. Learn more.

Left ArrowRight Arrow

39.51506, -84.39828

Hourly Observations for April 30, 2018

Temp ( °F °C ) Dew Point ( °F °C ) Humidity (%) Winds ( mph kmh ) Pressure ( in mb ) Visibility ( mi km ) Precip ( " mm )
12:15 am 00:15 Clear 38 3.1 32 -0.1 80 80 Calm 30.33 1027 10 16 0.00 0.00
12:35 am 00:35 Clear 37 2.8 31 -0.5 79 79 Calm 30.33 1027 10 16 0.00 0.00
12:55 am 00:55 Clear 36 2.3 31 -0.4 83 83 Calm 30.33 1027 10 16 0.00 0.00
1:15 am 01:15 Clear 36 2.4 31 -0.4 82 82 Calm 30.33 1027 10 16 0.00 0.00
1:35 am 01:35 Clear 36 2 31 -0.8 82 82 NNW 3 6 30.33 1027 10 16 0.00 0.00
1:55 am 01:55 Clear 35 1.4 30 -1 84 84 Calm 30.33 1027 10 16 0.00 0.00
2:15 am 02:15 Clear 34 1.3 30 -1.2 84 84 Calm 30.33 1027 10 16 0.00 0.00
2:35 am 02:35 Clear 34 1.3 30 -1.1 84 84 Calm 30.33 1027 10 16 0.00 0.00
2:55 am 02:55 Clear 33 0.5 29 -1.7 85 85 Calm 30.33 1027 10 16 0.00 0.00
3:15 am 03:15 Clear 34 0.9 31 -0.6 90 90 Calm 30.33 1027 10 16 0.00 0.00
3:35 am 03:35 Clear 33 0.8 30 -1 88 88 Calm 30.30 1026 10 16 0.00 0.00
3:55 am 03:55 Clear 32 0.2 30 -1.2 90 90 Calm 30.33 1027 10 16 0.00 0.00
4:15 am 04:15 Clear 33 0.4 30 -1.3 89 89 N 3 6 30.33 1027 10 16 0.00 0.00
4:35 am 04:35 Clear 32 0.1 30 -1.2 91 91 Calm 30.33 1027 10 16 0.00 0.00
4:55 am 04:55 Clear 32 -0.1 29 -1.5 90 90 Calm 30.33 1027 10 16 0.00 0.00
5:15 am 05:15 Clear 32 -0.2 29 -1.4 92 92 Calm 30.33 1027 10 16 0.00 0.00
5:35 am 05:35 Clear 31 -0.3 29 -1.4 92 92 Calm 30.33 1027 10 16 0.00 0.00
5:55 am 05:55 Clear 31 -0.4 30 -1.2 94 94 Calm 30.33 1027 10 16 0.00 0.00
6:15 am 06:15 Clear 31 -0.8 29 -1.6 94 94 Calm 30.33 1027 10 16 0.00 0.00
6:35 am 06:35 Clear 31 -0.4 30 -1.2 94 94 Calm 30.33 1027 10 16 0.00 0.00
6:55 am 06:55 Sunny 31 -0.5 30 -1.2 95 95 Calm 30.36 1028 7 11 0.00 0.00
7:15 am 07:15 Sunny 31 -0.6 29 -1.5 94 94 Calm 30.36 1028 10 16 0.00 0.00
7:35 am 07:35 Sunny 32 0.1 30 -0.9 93 93 Calm 30.36 1028 10 16 0.00 0.00
7:55 am 07:55 Sunny 34 0.9 32 0 94 94 Calm 30.36 1028 7 11 0.00 0.00
8:15 am 08:15 Sunny 38 3.4 35 1.4 87 87 Calm 30.36 1028 10 16 0.00 0.00
8:35 am 08:35 Sunny 41 4.8 36 2.2 83 83 Calm 30.36 1028 10 16 0.00 0.00
8:55 am 08:55 Sunny 43 6.3 37 3 80 80 Calm 30.39 1029 10 16 0.00 0.00
9:15 am 09:15 Sunny 47 8.3 37 2.6 68 68 S 3 6 30.36 1028 10 16 0.00 0.00
9:35 am 09:35 Sunny 50 9.9 36 2.3 59 59 S 5 7 30.36 1028 10 16 0.00 0.00
9:55 am 09:55 Sunny 53 11.6 35 1.9 52 52 S 5 7 30.36 1028 10 16 0.00 0.00
10:15 am 10:15 Sunny 54 12.4 35 1.7 48 48 SW 6 9 30.36 1028 10 16 0.00 0.00
10:35 am 10:35 Sunny 57 13.7 36 2.3 46 46 S 6 9 30.36 1028 10 16 0.00 0.00
10:55 am 10:55 Sunny 58 14.6 33 0.7 39 39 SSW 7 11 30.33 1027 10 16 0.00 0.00
11:15 am 11:15 Sunny 60 15.4 31 -0.5 34 34 S 9 15 30.33 1027 10 16 0.00 0.00
11:35 am 11:35 Sunny 61 15.9 29 -1.6 30 30 S 6 9 30.33 1027 10 16 0.00 0.00
11:55 am 11:55 Sunny 62 16.5 30 -1.1 30 30 S 9 15 30.33 1027 10 16 0.00 0.00
12:15 pm 12:15 Sunny 62 16.5 29 -1.5 29 29 S 7 11 30.33 1027 10 16 0.00 0.00
12:35 pm 12:35 Sunny 63 17.3 32 0 31 31 SSW 8 13 30.30 1026 10 16 0.00 0.00
12:55 pm 12:55 Sunny 64 17.7 30 -1.3 28 28 SW 8 13 30.30 1026 10 16 0.00 0.00
1:15 pm 13:15 Sunny 65 18.3 31 -0.4 28 28 SSW 8 13 30.27 1025 10 16 0.00 0.00
1:35 pm 13:35 Sunny 65 18.6 30 -1.2 26 26 SW 8 13 30.24 1024 10 16 0.00 0.00
1:55 pm 13:55 Sunny 67 19.2 28 -2.1 24 24 SSW 10 17 30.24 1024 10 16 0.00 0.00
2:15 pm 14:15 Sunny 67 19.3 30 -0.9 26 26 SSW 10 17 30.24 1024 10 16 0.00 0.00
2:35 pm 14:35 Sunny 68 19.8 29 -1.5 24 24 SSW 12 19 30.24 1024 10 16 0.00 0.00
2:55 pm 14:55 Sunny 69 20.5 32 0 25 25 SSW 13 20 30.24 1024 10 16 0.00 0.00
3:15 pm 15:15 Sunny 69 20.7 29 -1.7 22 22 SW 7 11 30.21 1023 10 16 0.00 0.00
3:35 pm 15:35 Sunny 69 20.8 29 -1.7 22 22 SSW 12 19 30.21 1023 10 16 0.00 0.00
3:55 pm 15:55 Sunny 69 20.8 29 -1.7 22 22 SSE 8 13 30.18 1022 10 16 0.00 0.00
4:15 pm 16:15 Sunny 70 21 30 -0.9 23 23 S 10 17 30.18 1022 10 16 0.00 0.00
4:35 pm 16:35 Sunny 70 21.3 30 -0.9 23 23 SSW 12 19 30.18 1022 10 16 0.00 0.00
4:55 pm 16:55 Sunny 71 21.4 28 -2 21 21 S 5 7 30.18 1022 10 16 0.00 0.00
5:15 pm 17:15 Sunny 72 22 29 -1.9 20 20 S 7 11 30.15 1021 10 16 0.00 0.00
5:35 pm 17:35 Sunny 71 21.9 28 -2.4 20 20 SSW 7 11 30.15 1021 10 16 0.00 0.00
5:55 pm 17:55 Sunny 71 21.9 28 -2.5 19 19 WSW 10 17 30.15 1021 10 16 0.00 0.00
6:15 pm 18:15 Sunny 71 21.8 28 -2.4 20 20 S 12 19 30.15 1021 10 16 0.00 0.00
6:35 pm 18:35 Sunny 71 21.8 28 -2.2 20 20 SW 9 15 30.15 1021 10 16 0.00 0.00
6:55 pm 18:55 Sunny 71 21.5 29 -1.9 21 21 WSW 7 11 30.15 1021 10 16 0.00 0.00
7:15 pm 19:15 Sunny 70 21 33 0.6 26 26 SW 5 7 30.12 1020 10 16 0.00 0.00
7:35 pm 19:35 Sunny 68 20 33 0.5 27 27 SW 9 15 30.12 1020 10 16 0.00 0.00
8:15 pm 20:15 Sunny 65 18.1 33 0.6 31 31 SSW 5 7 30.12 1020 10 16 0.00 0.00
8:35 pm 20:35 Clear 62 16.4 36 2.1 38 38 SW 5 7 30.15 1021 10 16 0.00 0.00
8:55 pm 20:55 Clear 56 13.5 41 5.1 57 57 W 3 6 30.15 1021 10 16 0.00 0.00
9:15 pm 21:15 Clear 52 11.2 42 5.8 70 70 Calm 30.15 1021 10 16 0.00 0.00
9:35 pm 21:35 Clear 52 11 41 5.2 68 68 Calm 30.15 1021 10 16 0.00 0.00
9:55 pm 21:55 Clear 51 10.8 41 5.1 68 68 Calm 30.15 1021 10 16 0.00 0.00
10:15 pm 22:15 Clear 50 10.1 41 4.9 70 70 Calm 30.15 1021 10 16 0.00 0.00
10:35 pm 22:35 Clear 49 9.7 38 3.6 66 66 Calm 30.15 1021 10 16 0.00 0.00
10:55 pm 22:55 Clear 48 8.9 40 4.4 74 74 Calm 30.15 1021 10 16 0.00 0.00
11:15 pm 23:15 Clear 46 7.9 38 3.4 73 73 Calm 30.15 1021 10 16 0.00 0.00
11:35 pm 23:35 Clear 46 7.5 40 4.2 80 80 Calm 30.15 1021 10 16 0.00 0.00
11:55 pm 23:55 Clear 45 7.4 38 3.3 75 75 Calm 30.15 1021 10 16 0.00 0.00

Powered by AerisWeather